Showing default

ASTROCAST-0404, 55112

Orbit data source: Space-Track

ASTROCAST-0404, 55112 is a payload satellite owned by Astrocast (CH) in SSO that was launched on Tue, 03 Jan 2023 UTC via an FALCON 9 launch vehicle from the Air Force Eastern Test Range (AFETR). Payload-class satellites include a variety of spacecraft equipped with specific instruments for various scientific and technological missions. These include communications satellites like Starlink; space stations such as the ISS; scientific satellites like the Hubble; Earth observation satellites from companies like Planet Labs, Umbra, and HawkEye 360; GPS; miniature CubeSats for education and research; and military/defense satellites.

Loading next visibility...
Identifier
55112, 2023-001DH
Orbit
SSO
Country
Flag of UnknownUnknown / SWTZ
Related business
Manufacturer
Astrocast
Mission
Operational Commercial Communications
Bus & Motor
CUBESAT 3U, Unknown motor
Mass
4.5 kg wet, 4.5 kg dry
Launch date (UTC)
2023-01-03 (3 years ago)
Launch vehicle
FALCON 9
Launch site
Air Force Eastern Test Range (AFETR)
Object type
Payload
Rocket body
Debris
Shape & HBR
Box, 0.1 m
Radar Cross Section
0.035 m², Medium (>0.1 m² and < 1m²)

Expand to show TLE details & history
Last TLE update: 14 hours ago

TLE from 14 hours ago
0 ASTROCAST-0404
1 55112U 23001DH  26035.23546568  .00009275  00000-0  36611-3 0  9998
2 55112  97.5688 127.5581 0008564 104.4629 255.7560 15.25729298124240
Epoch: 2026-02-04T05:39Z
TLE epoch observation values (Epoch: 2026-02-04T05:39:04.234Z)
Latitude
0.00001°
Longitude
-91.6145°
Altitude
493.142 km
Speed
7.617 km/s
True Right ascension
08h 30m 13s
True Declination
0° 00' 00"
Sunlit
Object was in full shadow at epoch
Visualization orbit readout
Latitude
Unknown
Longitude
Unknown
Altitude
Unknown
Speed
Unknown
Apparent Right ascension
Unknown
Apparent Declination
Unknown
Sunlit
N/A
Visualization observer readout
Local Sidereal Time
21:37:55
Azimuth
Unknown
Elevation
Unknown
Doppler factor
Unknown
Orbital elements
Apogee altitude
491.44 km
Perigee altitude
479.684 km
Semi-major axis
6,863.699 km
Eccentricity
0.00086
Inclination
97.5688°
RAAN
127.5581°
Arg. of periapsis
104.4629°
True anomaly
255.66091°
Mean anomaly
255.756°
Eccentric anomaly
255.70845°
Mean motion
3.81686 °/min
Orbital period
94.32 mins
BSTAR
0.00036611
Loading maneuver chart data...
Computing Atmospheric mass density...
Loading historical data...
Loading historical data...
Loading historical data...
Loading historical data...
Loading historical data...
Loading historical data...
Loading historical data...

Documentation

Showing up to 5 results
|